Regional Weather Roundup
Issued by NWS

Home | Current Version | Previous Version | Text Only | Print | Product List | Glossary On
Versions: 1 2 3 4 5 6 7 8 9 10 11 12 13 14 15 16 17 18 19 20 21 22 23 24 25 26 27 28 29 30 31 32 33 34 35 36 37 38 39 40 41 42 43 44 45 46 47 48 49 50
000
ASUS44 KFWD 060010
RWRTX
NORTH TEXAS HOURLY WEATHER ROUNDUP
NATIONAL WEATHER SERVICE FORT WORTH TX
700 PM CDT THU MAY 05 2016

NOTE: "FAIR" INDICATES FEW OR NO CLOUDS BELOW 12,000 FEET WITH NO
SIGNIFICANT WEATHER AND/OR OBSTRUCTIONS TO VISIBILITY.

TXZ118-119-060100-
DALLAS/FORT WORTH METROPLEX

CITY           SKY/WX    TMP DP  RH WIND       PRES   REMARKS
DFW AIRPORT    MOSUNNY   79  45  29 N7        29.98F
6HR MIN TEMP:  78; 6HR MAX TEMP:  83;

DALLAS LOVE    MOSUNNY   80  44  27 NW9       29.98F
6HR MIN TEMP:  78; 6HR MAX TEMP:  83;

FTW MEACHAM    SUNNY     81  46  29 NE9       29.98F
6HR MIN TEMP:  80; 6HR MAX TEMP:  84;

DAL-EXECUTIVE  SUNNY     78  44  29 NW8       29.97F
6HR MIN TEMP:  77; 6HR MAX TEMP:  83;

FTW-ALLIANCE   PTSUNNY   79  50  36 NE5       29.99S
6HR MIN TEMP:  78; 6HR MAX TEMP:  82;

FTW-NAS-JRB    SUNNY     82  45  27 NE6       29.99F
6HR MIN TEMP:  78; 6HR MAX TEMP:  82;

FTW-SPINKS     SUNNY     79  48  34 NE6       30.00S
ARLINGTON      SUNNY     82  45  27 NW8       29.98F
6HR MIN TEMP:  80; 6HR MAX TEMP:  85;

GRAND PRAIRIE  SUNNY     81  45  28 NE5       30.00F
ADDISON        SUNNY     81  46  30 NW9       29.99F
MESQUITE       SUNNY     77  45  31 N5        29.98F
LANCASTER      SUNNY     81  38  21 N6        29.99S
6HR MIN TEMP:  76; 6HR MAX TEMP:  83;

$$

TXZ091>094-102>105-117-120-121-131>134-060100-
NORTH CENTRAL TEXAS

CITY           SKY/WX    TMP DP  RH WIND       PRES   REMARKS
SHRMAN/DENISON SUNNY     73  45  36 NE5       30.00F
6HR MIN TEMP:  71; 6HR MAX TEMP:  76;

GAINESVILLE    SUNNY     76  50  39 CALM      30.01F
6HR MIN TEMP:  74; 6HR MAX TEMP:  78;

BOWIE          SUNNY     77  45  31 CALM      30.01F
6HR MIN TEMP:  76; 6HR MAX TEMP:  80;

BRIDGEPORT     SUNNY     80  48  32 NE3       30.02S
6HR MIN TEMP:  76; 6HR MAX TEMP:  83;

DECATUR        SUNNY     79  46  31 E3        30.00F
6HR MIN TEMP:  76; 6HR MAX TEMP:  81;

DENTON         SUNNY     78  49  35 NE6       29.98F
6HR MIN TEMP:  76; 6HR MAX TEMP:  81;

MCKINNEY       SUNNY     77  48  35 N7        29.98F
6HR MIN TEMP:  76; 6HR MAX TEMP:  80;

GREENVILLE     SUNNY     77  45  31 N7        29.98F
TERRELL        SUNNY     79  42  26 N10       29.98F
6HR MIN TEMP:  77; 6HR MAX TEMP:  81;

WAXAHACHIE     SUNNY     78  46  32 N8        29.99F
6HR MIN TEMP:  77; 6HR MAX TEMP:  82;

CLEBURNE       SUNNY     77  54  44 CALM      30.00F
GRANBURY       SUNNY     82  49  31 NE5       30.00S
6HR MIN TEMP:  80; 6HR MAX TEMP:  84;

$$

TXZ083>090-098>101-113>116-127>130-139>142-154-155-060100-
WESTERN NORTH TEXAS

CITY           SKY/WX    TMP DP  RH WIND       PRES   REMARKS
WICHITA FALLS  SUNNY     80  49  33 E8        30.00S
6HR MIN TEMP:  78; 6HR MAX TEMP:  83;

WF-KICKAPOO    HAZE      82  43  25 E8        30.01F VSB<1/4
6HR MIN TEMP:  79; 6HR MAX TEMP:  84;

VERNON         SUNNY     83  39  21 SE5       30.01F
6HR MIN TEMP:  53; 6HR MAX TEMP:  84;

ABILENE        MOSUNNY   82  47  29 E8        30.02
6HR MIN TEMP:  80; 6HR MAX TEMP:  84;

ABILENE-DYESS  MOSUNNY   82  53  36 E9        30.00S
6HR MIN TEMP:  80; 6HR MAX TEMP:  84; 6HR PCP: TRACE;

BRECKENRIDGE   SUNNY     84  47  26 CALM      30.00S HAZE
6HR MIN TEMP:  82; 6HR MAX TEMP:  86;

GRAHAM         SUNNY     82  51  33 CALM      29.99R
6HR MIN TEMP:  80; 6HR MAX TEMP:  85;

MINERAL WELLS  SUNNY     81  51  35 NE8       29.98F
6HR MIN TEMP:  79; 6HR MAX TEMP:  84;

STEPHENVILLE   SUNNY     80  47  31 CALM      30.03F
6HR MIN TEMP:  79; 6HR MAX TEMP:  83;

COMANCHE       CLOUDY    78  57  47 E6        30.02S
6HR MIN TEMP:  78; 6HR MAX TEMP:  82;

BROWNWOOD      CLOUDY    81  54  39 E7        30.01S
COLEMAN        CLOUDY    80  49  33 E5        30.01F
6HR MIN TEMP:  80; 6HR MAX TEMP:  85;

$$

TXZ143>147-156>162-174-175-060100-
CENTRAL TEXAS

CITY           SKY/WX    TMP DP  RH WIND       PRES   REMARKS
WACO           SUNNY     80  52  37 N6        29.98S
6HR MIN TEMP:  79; 6HR MAX TEMP:  84;

WACO-TSTC      SUNNY     77  50  38 N5        29.97
WACO-MCGREGOR  SUNNY     80  51  36 N5        29.98F
6HR MIN TEMP:  79; 6HR MAX TEMP:  84;

HILLSBORO      SUNNY     77  47  34 N7        29.98S
6HR MIN TEMP:  76; 6HR MAX TEMP:  80;

CORSICANA      SUNNY     80  46  30 N6        29.98F
6HR MIN TEMP:  79; 6HR MAX TEMP:  83;

HEARNE         CLOUDY    77  55  45 N5        29.97F
6HR MIN TEMP:  77; 6HR MAX TEMP:  83;

CAMERON        CLOUDY    79  54  41 NE3       29.97S
6HR MIN TEMP:  79; 6HR MAX TEMP:  83;

TEMPLE         CLOUDY    78  57  48 NE6       29.98F
6HR MIN TEMP:  78; 6HR MAX TEMP:  84;

KILLEEN        CLOUDY    79  55  43 N5        29.98F
6HR MIN TEMP:  79; 6HR MAX TEMP:  83;

KILLEEN-SKYLRK CLOUDY    80  56  43 N5        29.99S
6HR MIN TEMP:  79; 6HR MAX TEMP:  83;

FORT HOOD      CLOUDY    80  53  38 N2        29.97S
6HR MIN TEMP:  80; 6HR MAX TEMP:  83;

GATESVILLE     CLOUDY    81  52  36 MISG      30.01S
HAMILTON       CLOUDY    80  53  38 E3        30.02S
6HR MIN TEMP:  79; 6HR MAX TEMP:  83;

LAMPASAS       CLOUDY    79  60  51 NE3       30.00S
6HR MIN TEMP:  78; 6HR MAX TEMP:  82;

$$

TXZ095>097-106>112-122>126-135>138-148>153-164>167-060100-
EAST TEXAS

CITY           SKY/WX    TMP DP  RH WIND       PRES   REMARKS
PARIS          SUNNY     75  45  33 N8        29.98F
6HR MIN TEMP:  73; 6HR MAX TEMP:  79;

SULPHUR SPRNGS SUNNY     75  52  43 N8        30.00F
MOUNT PLEASANT SUNNY     77  44  30 NW6       29.98F
6HR MIN TEMP:  75; 6HR MAX TEMP:  78;

GILMER         SUNNY     74  46  36 N6        29.97F
6HR MIN TEMP:  74; 6HR MAX TEMP:  77;

MINEOLA        SUNNY     77  48  36 N5        29.98F
TYLER          SUNNY     78  44  29 N10       29.97F
6HR MIN TEMP:  77; 6HR MAX TEMP:  81;

LONGVIEW       SUNNY     75  49  39 N6        29.95F
6HR MIN TEMP:  75; 6HR MAX TEMP:  79;

MARSHALL       SUNNY     74  43  32 N9        29.98F
6HR MIN TEMP:  73; 6HR MAX TEMP:  76;

ATHENS         SUNNY     77  46  33 N8        29.96F
PALESTINE      SUNNY     78  46  32 N7        29.98F
JACKSONVILLE   SUNNY     76  44  31 N6        29.99F
HENDERSON      SUNNY     75  46  34 N6        29.97F
6HR MIN TEMP:  74; 6HR MAX TEMP:  79;

CENTER         FAIR      77  47  35 N5        29.95F
6HR MIN TEMP:  76; 6HR MAX TEMP:  80;

NACOGDOCHES    SUNNY     77  46  33 N6        29.95F
6HR MIN TEMP:  75; 6HR MAX TEMP:  81;

LUFKIN         SUNNY     77  46  33 N7        29.95F
6HR MIN TEMP:  77; 6HR MAX TEMP:  80;

$$

SUPPLEMENTAL OBSERVATIONS (CENTRAL)

CITY           SKY/WX    TMP DP  RH WIND       PRES   REMARKS
CADDO GRASSLND   N/A     79  50  36 N1          N/A
PAT MAYSE LAKE   N/A     77  41  27 NW8         N/A
MCGREGOR         N/A     79  52  38 NE6         N/A
TEMPLE           N/A     81  52  36 NE7         N/A
$$

SUPPLEMENTAL OBSERVATIONS (WEST)

CITY           SKY/WX    TMP DP  RH WIND       PRES   REMARKS
MILLERS CREEK    N/A     82  52  34 E7          N/A
POSSUM KINGDOM   N/A     82  48  30 E5          N/A
LBJ GRASSLAND    N/A     82  48  30 NE2         N/A
GRANBURY         N/A     82  48  30 E7          N/A
HAMBY            N/A     81  48  32 SE6         N/A
$$

SUPPLEMENTAL OBSERVATIONS (EAST)

CC1F1C2F2C3F3C4F4C5F5C6F6C7F7C8F8C9!


USA.gov is the U.S. government's official web portal to all federal, state and local government web resources and services.